TimeMDT,TemperatureF,Dew PointF,Humidity,Sea Level PressureIn,VisibilityMPH,Wind Direction,Wind SpeedMPH,Gust SpeedMPH,PrecipitationIn,Events,Conditions,WindDirDegrees,DateUTC
12:53 AM,73.0,57.9,59,30.01,10.0,ENE,12.7,-,N/A,,Partly Cloudy,60,2013-07-10 06:53:00
1:53 AM,71.1,62.1,73,30.02,10.0,ENE,18.4,-,N/A,,Clear,70,2013-07-10 07:53:00
2:53 AM,69.1,57.0,65,30.02,10.0,ESE,9.2,-,N/A,,Clear,110,2013-07-10 08:53:00
3:53 AM,69.1,57.0,65,30.00,10.0,SSE,9.2,-,N/A,,Clear,150,2013-07-10 09:53:00
4:53 AM,70.0,54.0,57,29.99,10.0,SSE,10.4,-,N/A,,Clear,150,2013-07-10 10:53:00
5:13 AM,69.8,53.6,56,30.15,10.0,SSE,8.1,-,N/A,Thunderstorm,Partly Cloudy,160,2013-07-10 11:13:00
5:45 AM,71.6,53.6,53,30.18,10.0,NNE,8.1,-,N/A,Thunderstorm,Thunderstorm,30,2013-07-10 11:45:00
5:53 AM,73.0,52.0,48,30.02,10.0,NE,9.2,-,N/A,Thunderstorm,Thunderstorm,50,2013-07-10 11:53:00
6:33 AM,68.0,57.2,68,30.18,10.0,North,16.1,29.9,N/A,,Partly Cloudy,10,2013-07-10 12:33:00
6:53 AM,66.0,60.1,81,30.03,10.0,NE,11.5,-,N/A,,Clear,50,2013-07-10 12:53:00
7:53 AM,73.9,62.1,66,30.03,10.0,ESE,12.7,-,N/A,,Clear,110,2013-07-10 13:53:00
8:53 AM,75.0,63.0,66,30.04,10.0,East,9.2,-,N/A,,Clear,100,2013-07-10 14:53:00
9:53 AM,80.1,64.0,58,30.08,10.0,NE,12.7,17.3,N/A,,Clear,40,2013-07-10 15:53:00
10:53 AM,80.1,64.0,58,30.08,10.0,East,12.7,-,N/A,,Clear,80,2013-07-10 16:53:00
11:53 AM,82.9,64.0,53,30.07,10.0,East,11.5,-,N/A,,Clear,100,2013-07-10 17:53:00
12:53 PM,82.9,63.0,51,30.06,10.0,ESE,11.5,-,N/A,,Clear,110,2013-07-10 18:53:00
1:53 PM,87.1,63.0,44,30.04,10.0,East,16.1,24.2,N/A,,Clear,90,2013-07-10 19:53:00
2:53 PM,89.1,61.0,39,30.00,10.0,East,16.1,24.2,N/A,,Clear,90,2013-07-10 20:53:00
3:53 PM,90.0,61.0,38,29.96,10.0,ESE,17.3,26.5,N/A,,Clear,110,2013-07-10 21:53:00
4:53 PM,88.0,59.0,37,29.94,10.0,ESE,19.6,28.8,N/A,,Clear,110,2013-07-10 22:53:00
5:53 PM,86.0,60.1,41,29.93,10.0,ESE,20.7,27.6,N/A,,Clear,110,2013-07-10 23:53:00
6:53 PM,84.9,60.1,43,29.93,10.0,SE,15.0,24.2,N/A,Thunderstorm,Mostly Cloudy,140,2013-07-11 00:53:00
7:07 PM,82.4,62.6,51,30.06,10.0,SE,19.6,28.8,0.00,Rain,Light Rain,130,2013-07-11 01:07:00
7:53 PM,82.0,63.0,52,29.93,10.0,SE,9.2,18.4,0.00,,Clear,140,2013-07-11 01:53:00
8:53 PM,80.1,64.0,58,29.98,10.0,South,15.0,-,N/A,,Partly Cloudy,180,2013-07-11 02:53:00
9:07 PM,73.4,55.4,53,30.13,10.0,SSW,15.0,32.2,N/A,,Mostly Cloudy,210,2013-07-11 03:07:00
9:53 PM,71.1,57.9,63,29.98,10.0,South,15.0,-,N/A,,Clear,180,2013-07-11 03:53:00
10:53 PM,71.1,57.0,61,29.99,10.0,South,9.2,-,N/A,,Clear,180,2013-07-11 04:53:00
11:53 PM,71.1,55.0,57,30.00,10.0,SSW,5.8,-,N/A,,Clear,210,2013-07-11 05:53:00